EN

Hourly Weather Laczka

Today, 28 July, Wednesday

Time Temperature Precipitation Wind Pressure Humidity
00:00 +21°C° 0 mm 1 mps 731 mmHg 76%
01:00 +21°C° 0 mm 1 mps 731 mmHg 77%
02:00 +21°C° 0 mm 1 mps 731 mmHg 78%
03:00 +20°C° 0 mm 1 mps 731 mmHg 80%
04:00 +20°C° 0 mm 1 mps 730 mmHg 81%
05:00 +22°C° 0 mm 1 mps 730 mmHg 77%
06:00 +23°C° 0 mm 1 mps 731 mmHg 72%
07:00 +25°C° 0 mm 1 mps 731 mmHg 67%
08:00 +26°C° 0 mm 1 mps 730 mmHg 61%
09:00 +28°C° 0 mm 1 mps 730 mmHg 55%
10:00 +29°C° 0 mm 1 mps 730 mmHg 49%
11:00 +30°C° 0 mm 1 mps 730 mmHg 47%
12:00 +30°C° 0 mm 1 mps 730 mmHg 46%
13:00 +32°C° 0 mm 2 mps 730 mmHg 41%
14:00 +32°C° 0 mm 2 mps 730 mmHg 42%
15:00 +32°C° 0 mm 2 mps 729 mmHg 42%
16:00 +32°C° 0 mm 2 mps 729 mmHg 42%
17:00 +29°C° 0.8 mm 3 mps 729 mmHg 56%
18:00 +26°C° 0.8 mm 3 mps 729 mmHg 69%
19:00 +22°C° 0.8 mm 3 mps 729 mmHg 83%
20:00 +21°C° 2.9 mm 3 mps 729 mmHg 88%
21:00 +20°C° 2.9 mm 2 mps 730 mmHg 92%
22:00 +20°C° 2.9 mm 1 mps 731 mmHg 97%
23:00 +20°C° 2 mm 1 mps 731 mmHg 97%

Tomorrow, 29 July, Thursday

Time Temperature Precipitation Wind Pressure Humidity
00:00 +20°C° 2 mm 1 mps 731 mmHg 97%
01:00 +20°C° 2 mm 1 mps 731 mmHg 97%
02:00 +20°C° 0.1 mm 1 mps 731 mmHg 96%
03:00 +20°C° 0.1 mm 1 mps 731 mmHg 96%
04:00 +20°C° 0.1 mm 1 mps 731 mmHg 95%
05:00 +20°C° 0 mm 1 mps 731 mmHg 92%
06:00 +20°C° 0 mm 1 mps 732 mmHg 89%
07:00 +21°C° 0 mm 1 mps 732 mmHg 86%
08:00 +21°C° 0 mm 2 mps 732 mmHg 78%
09:00 +24°C° 0 mm 2 mps 732 mmHg 70%
10:00 +25°C° 0 mm 2 mps 732 mmHg 61%
11:00 +26°C° 0 mm 3 mps 732 mmHg 56%
12:00 +27°C° 0 mm 4 mps 732 mmHg 51%
13:00 +28°C° 0 mm 4 mps 732 mmHg 46%
14:00 +28°C° 0 mm 4 mps 731 mmHg 46%
15:00 +28°C° 0 mm 4 mps 731 mmHg 46%
16:00 +28°C° 0 mm 4 mps 731 mmHg 46%
17:00 +26°C° 0 mm 3 mps 731 mmHg 52%
18:00 +24°C° 0 mm 2 mps 731 mmHg 59%
19:00 +23°C° 0 mm 1 mps 731 mmHg 65%
20:00 +22°C° 0 mm 1 mps 731 mmHg 67%
21:00 +21°C° 0 mm 1 mps 731 mmHg 69%
22:00 +20°C° 0 mm 1 mps 731 mmHg 71%
23:00 +20°C° 0 mm 1 mps 731 mmHg 71%

Day after tomorrow, 30 July, Friday

Time Temperature Precipitation Wind Pressure Humidity
00:00 +20°C° 0 mm 1 mps 731 mmHg 72%
01:00 +19°C° 0 mm 1 mps 731 mmHg 73%
02:00 +19°C° 0 mm 1 mps 731 mmHg 73%
03:00 +19°C° 0 mm 1 mps 731 mmHg 73%
04:00 +19°C° 0 mm 1 mps 730 mmHg 73%
05:00 +21°C° 0 mm 1 mps 730 mmHg 70%
06:00 +22°C° 0 mm 1 mps 731 mmHg 67%
07:00 +23°C° 0 mm 1 mps 731 mmHg 65%
08:00 +25°C° 0 mm 1 mps 730 mmHg 60%
09:00 +26°C° 0 mm 2 mps 730 mmHg 55%
10:00 +28°C° 0 mm 2 mps 730 mmHg 50%
11:00 +29°C° 0 mm 3 mps 730 mmHg 48%
12:00 +30°C° 0 mm 3 mps 730 mmHg 45%
13:00 +32°C° 0 mm 4 mps 729 mmHg 42%
14:00 +32°C° 0 mm 4 mps 729 mmHg 43%
15:00 +31°C° 0 mm 3 mps 729 mmHg 44%
16:00 +31°C° 0 mm 3 mps 728 mmHg 44%
17:00 +29°C° 0 mm 3 mps 728 mmHg 51%
18:00 +27°C° 0 mm 2 mps 728 mmHg 58%
19:00 +25°C° 0 mm 1 mps 728 mmHg 66%
20:00 +24°C° 0 mm 1 mps 728 mmHg 68%
21:00 +23°C° 0 mm 1 mps 728 mmHg 71%
22:00 +22°C° 0 mm 1 mps 728 mmHg 73%
23:00 +22°C° 0 mm 1 mps 728 mmHg 74%

31 July, Saturday

Time Temperature Precipitation Wind Pressure Humidity
00:00 +22°C° 0 mm 1 mps 728 mmHg 75%
01:00 +21°C° 0 mm 1 mps 728 mmHg 76%
02:00 +21°C° 0.1 mm 1 mps 727 mmHg 77%
03:00 +21°C° 0.1 mm 1 mps 727 mmHg 78%
04:00 +20°C° 0.1 mm 2 mps 727 mmHg 79%
05:00 +20°C° 1 mm 2 mps 727 mmHg 83%
06:00 +20°C° 1 mm 2 mps 728 mmHg 87%
07:00 +20°C° 1 mm 2 mps 728 mmHg 91%
08:00 +20°C° 0.4 mm 2 mps 728 mmHg 88%
09:00 +21°C° 0.4 mm 2 mps 728 mmHg 84%
10:00 +23°C° 0.4 mm 2 mps 728 mmHg 80%
11:00 +24°C° 0.1 mm 3 mps 728 mmHg 75%
12:00 +25°C° 0.1 mm 3 mps 728 mmHg 70%
13:00 +25°C° 0.1 mm 3 mps 728 mmHg 66%
14:00 +26°C° 0.1 mm 3 mps 728 mmHg 62%
15:00 +26°C° 0.1 mm 3 mps 728 mmHg 58%
16:00 +27°C° 0.1 mm 3 mps 729 mmHg 54%
17:00 +25°C° 0 mm 3 mps 729 mmHg 58%
18:00 +24°C° 0 mm 3 mps 729 mmHg 62%
19:00 +21°C° 0 mm 2 mps 729 mmHg 66%
20:00 +20°C° 0 mm 2 mps 729 mmHg 67%
21:00 +19°C° 0 mm 2 mps 729 mmHg 67%
22:00 +19°C° 0 mm 2 mps 729 mmHg 68%
23:00 +19°C° 0 mm 1 mps 729 mmHg 69%

1 August, Sunday

Time Temperature Precipitation Wind Pressure Humidity
00:00 +19°C° 0 mm 1 mps 729 mmHg 71%
01:00 +19°C° 0 mm 1 mps 729 mmHg 72%
02:00 +18°C° 0 mm 1 mps 729 mmHg 74%
03:00 +18°C° 0 mm 1 mps 729 mmHg 75%
04:00 +16°C° 0 mm 0 mps 728 mmHg 76%
05:00 +18°C° 0.9 mm 1 mps 728 mmHg 80%
06:00 +18°C° 0.9 mm 1 mps 728 mmHg 84%
07:00 +18°C° 0.9 mm 1 mps 729 mmHg 88%
08:00 +20°C° 0.4 mm 1 mps 728 mmHg 83%
09:00 +21°C° 0.4 mm 1 mps 728 mmHg 79%
10:00 +23°C° 0.4 mm 2 mps 728 mmHg 74%
11:00 +23°C° 0.7 mm 2 mps 727 mmHg 76%
12:00 +23°C° 0.7 mm 2 mps 727 mmHg 78%
13:00 +23°C° 0.7 mm 2 mps 726 mmHg 80%
14:00 +23°C° 2.2 mm 2 mps 726 mmHg 83%
15:00 +21°C° 2.2 mm 2 mps 726 mmHg 87%
16:00 +20°C° 2.2 mm 3 mps 725 mmHg 90%
17:00 +19°C° 0.8 mm 3 mps 726 mmHg 92%
18:00 +18°C° 0.8 mm 3 mps 726 mmHg 94%
19:00 +17°C° 0.8 mm 3 mps 726 mmHg 96%
20:00 +17°C° 1 mm 3 mps 727 mmHg 96%
21:00 +16°C° 1 mm 3 mps 727 mmHg 97%
22:00 +16°C° 1 mm 3 mps 727 mmHg 97%
23:00 +15°C° 0.6 mm 2 mps 727 mmHg 97%

2 August, Monday

Time Temperature Precipitation Wind Pressure Humidity
00:00 +15°C° 0.6 mm 2 mps 728 mmHg 96%
01:00 +15°C° 0.6 mm 1 mps 728 mmHg 96%
02:00 +15°C° 0 mm 2 mps 728 mmHg 95%
03:00 +15°C° 0 mm 2 mps 728 mmHg 95%
04:00 +15°C° 0 mm 2 mps 728 mmHg 94%
05:00 +15°C° 0 mm 2 mps 729 mmHg 92%
06:00 +16°C° 0 mm 2 mps 729 mmHg 90%
07:00 +17°C° 0 mm 2 mps 729 mmHg 88%
08:00 +18°C° 0.2 mm 2 mps 729 mmHg 81%
09:00 +19°C° 0.2 mm 3 mps 730 mmHg 75%
10:00 +20°C° 0.2 mm 3 mps 730 mmHg 68%
11:00 +21°C° 0.1 mm 4 mps 730 mmHg 62%
12:00 +22°C° 0.1 mm 4 mps 730 mmHg 56%
13:00 +23°C° 0.1 mm 4 mps 730 mmHg 49%
14:00 +23°C° 0 mm 4 mps 730 mmHg 51%
15:00 +23°C° 0 mm 4 mps 730 mmHg 53%
16:00 +23°C° 0 mm 4 mps 730 mmHg 55%
17:00 +21°C° 0.2 mm 3 mps 730 mmHg 62%
18:00 +19°C° 0.2 mm 2 mps 730 mmHg 70%
19:00 +19°C° 0.2 mm 1 mps 730 mmHg 78%
20:00 +18°C° 0 mm 1 mps 731 mmHg 81%
21:00 +16°C° 0 mm 1 mps 731 mmHg 84%
22:00 +15°C° 0 mm 1 mps 731 mmHg 86%
23:00 +15°C° 0 mm 2 mps 731 mmHg 87%
Show more